• In Hungary
  • List of Countries
  • For 7 days
  • Water Temperature
  • Satellite Maps
  • Weather Map
  • News
  • Weather Widgets
  • user-avatar
    Login

    Hourly Weather Stow

    Today, 24 June, Sunday

    Time Temperature Precipitation Wind Pressure Humidity
    00:00 +19°C° 0 mm 2 mps 727 mmHg 92%
    01:00 +19°C° 0 mm 2 mps 727 mmHg 93%
    02:00 +18°C° 0 mm 2 mps 727 mmHg 94%
    03:00 +18°C° 0 mm 3 mps 727 mmHg 94%
    04:00 +18°C° 0 mm 3 mps 727 mmHg 94%
    05:00 +18°C° 0 mm 3 mps 728 mmHg 93%
    06:00 +19°C° 0 mm 3 mps 728 mmHg 92%
    07:00 +21°C° 0 mm 3 mps 728 mmHg 91%
    08:00 +22°C° 0.2 mm 3 mps 728 mmHg 85%
    09:00 +22°C° 0.2 mm 4 mps 729 mmHg 80%
    10:00 +23°C° 0.2 mm 5 mps 729 mmHg 74%
    11:00 +25°C° 0.1 mm 5 mps 729 mmHg 70%
    12:00 +26°C° 0.1 mm 5 mps 729 mmHg 66%
    13:00 +26°C° 0.1 mm 5 mps 729 mmHg 63%
    14:00 +26°C° 0.3 mm 5 mps 730 mmHg 66%
    15:00 +26°C° 0.3 mm 5 mps 730 mmHg 69%
    16:00 +25°C° 0.3 mm 5 mps 730 mmHg 72%
    17:00 +25°C° 0.1 mm 4 mps 730 mmHg 76%
    18:00 +23°C° 0.1 mm 4 mps 730 mmHg 80%
    19:00 +22°C° 0.1 mm 3 mps 731 mmHg 83%
    20:00 +20°C° 0 mm 3 mps 731 mmHg 87%
    21:00 +19°C° 0 mm 3 mps 732 mmHg 90%
    22:00 +18°C° 0 mm 3 mps 732 mmHg 93%
    23:00 +17°C° 0 mm 3 mps 733 mmHg 93%

    Tomorrow, 25 June, Monday

    Time Temperature Precipitation Wind Pressure Humidity
    00:00 +17°C° 0 mm 2 mps 733 mmHg 94%
    01:00 +16°C° 0 mm 2 mps 733 mmHg 94%
    02:00 +16°C° 0 mm 2 mps 733 mmHg 95%
    03:00 +15°C° 0 mm 2 mps 733 mmHg 95%
    04:00 +15°C° 0 mm 2 mps 733 mmHg 95%
    05:00 +16°C° 0 mm 2 mps 734 mmHg 94%
    06:00 +16°C° 0 mm 2 mps 735 mmHg 92%
    07:00 +17°C° 0 mm 2 mps 736 mmHg 91%
    08:00 +18°C° 0 mm 2 mps 736 mmHg 85%
    09:00 +20°C° 0 mm 3 mps 736 mmHg 79%
    10:00 +21°C° 0 mm 3 mps 736 mmHg 73%
    11:00 +22°C° 0 mm 3 mps 736 mmHg 71%
    12:00 +24°C° 0 mm 3 mps 736 mmHg 69%
    13:00 +24°C° 0 mm 3 mps 736 mmHg 66%
    14:00 +24°C° 0 mm 3 mps 736 mmHg 64%
    15:00 +24°C° 0 mm 3 mps 736 mmHg 61%
    16:00 +25°C° 0 mm 4 mps 736 mmHg 58%
    17:00 +22°C° 0 mm 3 mps 736 mmHg 61%
    18:00 +21°C° 0 mm 3 mps 736 mmHg 63%
    19:00 +19°C° 0 mm 3 mps 736 mmHg 65%
    20:00 +18°C° 0 mm 3 mps 736 mmHg 64%
    21:00 +16°C° 0 mm 3 mps 736 mmHg 63%
    22:00 +14°C° 0 mm 3 mps 736 mmHg 62%
    23:00 +13°C° 0 mm 3 mps 736 mmHg 66%

    Day after tomorrow, 26 June, Tuesday

    Time Temperature Precipitation Wind Pressure Humidity
    00:00 +13°C° 0 mm 3 mps 736 mmHg 69%
    01:00 +12°C° 0 mm 3 mps 736 mmHg 72%
    02:00 +12°C° 0 mm 3 mps 736 mmHg 72%
    03:00 +13°C° 0 mm 3 mps 736 mmHg 71%
    04:00 +13°C° 0 mm 4 mps 736 mmHg 71%
    05:00 +13°C° 0 mm 4 mps 736 mmHg 71%
    06:00 +14°C° 0 mm 4 mps 736 mmHg 70%
    07:00 +15°C° 0 mm 4 mps 736 mmHg 70%
    08:00 +18°C° 0 mm 4 mps 736 mmHg 68%
    09:00 +20°C° 0 mm 4 mps 736 mmHg 67%
    10:00 +22°C° 0 mm 4 mps 736 mmHg 66%
    11:00 +25°C° 0 mm 4 mps 735 mmHg 65%
    12:00 +26°C° 0 mm 3 mps 735 mmHg 64%
    13:00 +28°C° 0 mm 3 mps 735 mmHg 64%
    14:00 +29°C° 0.1 mm 3 mps 734 mmHg 64%
    15:00 +29°C° 0.1 mm 3 mps 734 mmHg 65%
    16:00 +30°C° 0.1 mm 3 mps 733 mmHg 65%
    17:00 +29°C° 0.1 mm 2 mps 733 mmHg 70%
    18:00 +28°C° 0.1 mm 2 mps 733 mmHg 75%
    19:00 +27°C° 0.1 mm 2 mps 732 mmHg 79%
    20:00 +26°C° 0.1 mm 3 mps 732 mmHg 82%
    21:00 +25°C° 0.1 mm 3 mps 732 mmHg 84%
    22:00 +23°C° 0.1 mm 4 mps 732 mmHg 86%
    23:00 +23°C° 0.5 mm 4 mps 731 mmHg 86%

    27 June, Wednesday

    Time Temperature Precipitation Wind Pressure Humidity
    00:00 +23°C° 0.5 mm 4 mps 731 mmHg 87%
    01:00 +22°C° 0.5 mm 4 mps 731 mmHg 87%
    02:00 +22°C° 0.9 mm 4 mps 730 mmHg 89%
    03:00 +21°C° 0.9 mm 4 mps 730 mmHg 91%
    04:00 +21°C° 0.9 mm 4 mps 730 mmHg 94%
    05:00 +21°C° 0.6 mm 4 mps 730 mmHg 94%
    06:00 +21°C° 0.6 mm 4 mps 730 mmHg 94%
    07:00 +21°C° 0.6 mm 5 mps 729 mmHg 94%
    08:00 +22°C° 0.6 mm 5 mps 729 mmHg 92%
    09:00 +23°C° 0.6 mm 5 mps 729 mmHg 90%
    10:00 +25°C° 0.6 mm 5 mps 729 mmHg 89%
    11:00 +25°C° 1.4 mm 5 mps 728 mmHg 87%
    12:00 +26°C° 1.4 mm 5 mps 728 mmHg 85%
    13:00 +26°C° 1.4 mm 6 mps 728 mmHg 83%
    14:00 +26°C° 0.7 mm 6 mps 727 mmHg 83%
    15:00 +27°C° 0.7 mm 6 mps 727 mmHg 82%
    16:00 +27°C° 0.7 mm 6 mps 726 mmHg 81%
    17:00 +27°C° 0.7 mm 6 mps 726 mmHg 83%
    18:00 +26°C° 0.7 mm 5 mps 726 mmHg 85%
    19:00 +26°C° 0.7 mm 5 mps 725 mmHg 87%
    20:00 +25°C° 0.5 mm 5 mps 725 mmHg 89%
    21:00 +23°C° 0.5 mm 4 mps 726 mmHg 91%
    22:00 +22°C° 0.5 mm 4 mps 726 mmHg 93%
    23:00 +21°C° 0.1 mm 4 mps 726 mmHg 93%

    28 June, Thursday

    Time Temperature Precipitation Wind Pressure Humidity
    00:00 +21°C° 0.1 mm 4 mps 726 mmHg 94%
    01:00 +20°C° 0.1 mm 4 mps 726 mmHg 94%
    02:00 +20°C° 0.1 mm 4 mps 726 mmHg 94%
    03:00 +19°C° 0.1 mm 4 mps 726 mmHg 94%
    04:00 +19°C° 0.1 mm 4 mps 726 mmHg 95%
    05:00 +19°C° 0 mm 4 mps 727 mmHg 94%
    06:00 +19°C° 0 mm 4 mps 728 mmHg 94%
    07:00 +19°C° 0 mm 4 mps 728 mmHg 93%
    08:00 +19°C° 0 mm 4 mps 728 mmHg 92%
    09:00 +20°C° 0 mm 4 mps 729 mmHg 91%
    10:00 +20°C° 0 mm 4 mps 729 mmHg 90%
    11:00 +21°C° 0 mm 4 mps 730 mmHg 86%
    12:00 +22°C° 0 mm 4 mps 730 mmHg 82%
    13:00 +23°C° 0 mm 4 mps 730 mmHg 78%
    14:00 +25°C° 0 mm 4 mps 730 mmHg 75%
    15:00 +26°C° 0 mm 3 mps 730 mmHg 73%
    16:00 +27°C° 0 mm 3 mps 730 mmHg 70%
    17:00 +26°C° 0 mm 3 mps 730 mmHg 74%
    18:00 +26°C° 0 mm 2 mps 731 mmHg 77%
    19:00 +25°C° 0 mm 1 mps 731 mmHg 80%
    20:00 +24°C° 0 mm 1 mps 731 mmHg 82%
    21:00 +23°C° 0 mm 1 mps 731 mmHg 85%
    22:00 +21°C° 0 mm 1 mps 731 mmHg 87%
    23:00 +21°C° 0 mm 1 mps 732 mmHg 88%

    29 June, Friday

    Time Temperature Precipitation Wind Pressure Humidity
    00:00 +21°C° 0 mm 1 mps 732 mmHg 90%
    01:00 +21°C° 0 mm 1 mps 732 mmHg 91%
    02:00 +21°C° 0 mm 1 mps 732 mmHg 92%
    03:00 +20°C° 0 mm 1 mps 732 mmHg 93%
    04:00 +20°C° 0 mm 1 mps 732 mmHg 94%
    05:00 +21°C° 0 mm 1 mps 733 mmHg 92%
    06:00 +22°C° 0 mm 1 mps 733 mmHg 91%
    07:00 +23°C° 0 mm 1 mps 734 mmHg 89%
    08:00 +25°C° 0 mm 1 mps 734 mmHg 83%
    09:00 +27°C° 0 mm 1 mps 734 mmHg 76%
    10:00 +28°C° 0 mm 1 mps 734 mmHg 69%
    11:00 +29°C° 0 mm 2 mps 734 mmHg 66%
    12:00 +30°C° 0 mm 2 mps 734 mmHg 62%
    13:00 +32°C° 0 mm 2 mps 734 mmHg 58%
    14:00 +32°C° 0 mm 2 mps 734 mmHg 58%
    15:00 +32°C° 0 mm 2 mps 733 mmHg 58%
    16:00 +32°C° 0 mm 2 mps 733 mmHg 59%
    17:00 +31°C° 0 mm 2 mps 733 mmHg 63%
    18:00 +30°C° 0 mm 1 mps 733 mmHg 68%
    19:00 +29°C° 0 mm 1 mps 733 mmHg 73%
    20:00 +28°C° 0 mm 1 mps 733 mmHg 76%
    21:00 +27°C° 0 mm 2 mps 733 mmHg 80%
    22:00 +25°C° 0 mm 2 mps 733 mmHg 83%
    23:00 +25°C° 0 mm 2 mps 733 mmHg 85%
    Show more